This is the latest recevied weather packets stored in our database for station/object KB4MLW-13. If no packets are shown the sender has not sent any weather packets the latest 10 day(s).
| Time | Temp. | Humidity | Pressure | Rain* | Wind** | Luminosity | Snow |
|---|---|---|---|---|---|---|---|
| 1788212878 | 33.89° C | 58% | 1000.9 hPa | 0 mm | - | - | - |
| 1788212818 | 33.33° C | 59% | 1001.1 hPa | 0 mm | - | - | - |
| 1788212758 | 33.33° C | 61% | 1001.1 hPa | 0 mm | - | - | - |
| 1788212699 | 33.33° C | 63% | 1001 hPa | 0 mm | - | - | - |
| 1788212639 | 33.33° C | 63% | 1001 hPa | 0 mm | - | - | - |
| 1788212578 | 33.33° C | 61% | 1000.9 hPa | 0 mm | - | - | - |
| 1788212488 | 33.33° C | 60% | 1001 hPa | 0 mm | - | - | - |
| 1788212428 | 33.33° C | 65% | 1001 hPa | 0 mm | - | - | - |
| 1788212369 | 33.33° C | 59% | 1001.2 hPa | 0 mm | - | - | - |
| 1788212307 | 33.89° C | 61% | 1000.8 hPa | 0 mm | - | - | - |
| 1788212248 | 33.89° C | 62% | 1001 hPa | 0 mm | - | - | - |
| 1788212188 | 33.89° C | 60% | 1001 hPa | 0 mm | - | - | - |
| 1788212128 | 33.89° C | 59% | 1001.1 hPa | 0 mm | - | - | - |
| 1788212069 | 34.44° C | 59% | 1001 hPa | 0 mm | - | - | - |
| 1788211979 | 34.44° C | 57% | 1000.9 hPa | 0 mm | - | - | - |
| 1788211919 | 34.44° C | 56% | 1000.9 hPa | 0 mm | - | - | - |
| 1788211858 | 34.44° C | 57% | 1001 hPa | 0 mm | - | - | - |
| 1788211798 | 34.44° C | 54% | 1001 hPa | 0 mm | - | - | - |
| 1788211738 | 34.44° C | 55% | 1001 hPa | 0 mm | - | - | - |
| 1788211648 | 34.44° C | 56% | 1000.9 hPa | 0 mm | - | - | - |
| 1788211589 | 34.44° C | 58% | 1001 hPa | 0 mm | - | - | - |
| 1788211529 | 34.44° C | 56% | 1000.9 hPa | 0 mm | - | - | - |
| 1788211439 | 33.89° C | 55% | 1001.1 hPa | 0 mm | - | - | - |
| 1788211378 | 33.89° C | 59% | 1000.9 hPa | 0 mm | - | - | - |
| 1788211318 | 33.89° C | 57% | 1000.9 hPa | 0 mm | - | - | - |
* Rain latest hour (hover to see other rain measurements)
** Current wind speed in m/s (hover to see current wind gust speed)